sat.trackr.live / text

‹ back to catalog

STARLINK-32384

NORAD 62146 · 2024-224H

PAYLOAD ACTIVE UNKNOWN

§ Identity

Operator
Country
US
Launch date
2024-11-30
Launch site
AFETR
Launch vehicle
Mass (kg)
RCS (m²)

Purposes: comms

External: N2YO · Heavens-Above · Gunter

§ Orbital elements

Epoch: 2026-05-24T23:06:07.236864Z

Period
94.27 min
Inclination
43.0042°
Eccentricity
0.0001750
Mean motion
15.27592373 rev/d
Perigee alt
481.8 km
Apogee alt
484.2 km
Semi-major
6,861.1 km
B*
4.8158e-4
RAAN
87.4713°
Arg perigee
286.6550°
Mean anomaly
73.4110°
Rev number
8,414

§ Raw data

STARLINK-323841 62146U 24224H   26144.96258376  .00013018  00000+0  48158-3 0  99972 62146  43.0042  87.4713 0001750 286.6550  73.4110 15.27592373 84146

JSON: /api/v1/satellites/62146 · /tle

For live sub-satellite position, see the globe view (requires WebGL).

§ Visibility from observer

Set your observer location to see the next 7 days of passes ≥ 10°. The values pass through the URL so the page stays shareable.

No JS? Fill the form by hand. The geolocation button needs JavaScript.